Regional Weather Roundup
Issued by NWS

Home | Current Version | Previous Version | Text Only | Print | Product List | Glossary On
Versions: 1 2 3 4 5 6 7 8 9 10 11 12 13 14 15 16 17 18 19 20 21 22 23 24 25 26 27 28 29 30 31 32 33 34 35 36 37 38 39 40 41 42 43 44 45 46 47 48 49 50
000
ASPQ40 PGUM 030814
RWRPQ
WEATHER ROUNDUP FOR THE MARIANAS AND MICRONESIA
NATIONAL WEATHER SERVICE TIYAN GU
600 PM CHST MON AUG 03 2015

GUZ001>004-030900-
MARIANA ISLANDS-

CITY           SKY/WX    TMP DP  RH WIND       PRES   REMARKS
GUAM AIRPORT   SUNNY     82  79  89 SW9       29.59S HX  93
ANDERSEN AFB   NOT AVBL
ROTA AIRPORT   NOT AVBL
TINIAN AP      NOT AVBL
SAIPAN AP      NOT AVBL

$$

PMZ161-030900-
REPUBLIC OF PALAU-

CITY           SKY/WX    TMP DP  RH WIND       PRES   REMARKS
KOROR AP       LGT RAIN  79  77  94 SW14G24   29.70F
KOROR WSO      CLOUDY    81  73  78 W12G30    29.74R

$$

PMZ171>174-030900-
FEDERATED STATES OF MICRONESIA-

CITY           SKY/WX    TMP DP  RH WIND       PRES   REMARKS
YAP AIRPORT    LGT RAIN  82  77  83 W16       29.67S HX  91
CHUUK AP       CLOUDY    82  77  83 S9        29.75R HX  91
POHNPEI AP     NOT AVBL
POHNPEI WSO    CLOUDY    82  77  83 NW2       29.82R HX  91
KOSRAE AP      NOT AVBL

$$

PMZ181-030900-
REPUBLIC OF THE MARSHALL ISLANDS-

CITY           SKY/WX    TMP DP  RH WIND       PRES   REMARKS
KWAJALEIN AP   PTCLDY    84  73  70 NE8       29.77R HX  91
MAJURO AP      CLOUDY    82  77  83 E6        29.73R HX  91
MAJURO WSO     CLOUDY    84  77  79 VRB5      29.74R HX  94

$$




USA.gov is the U.S. government's official web portal to all federal, state and local government web resources and services.